Weather observations for the past three days for
Lafayette, Lafayette Regional Airport
Imperial (Metric)
Date Time (cdt) Wind (mph) Vis. (mi.) Weather Sky Cond. Temperature (ºF) Relative Humidity Wind Chill (°F) Heat Index (°F) Pressure Precipitation (in)
Air Dwpt 6 hour altimeter (in) sea level (mb) 1 hr 3 hr 6 hr
Max. Min.
25 12:53 W 8 10.00 Mostly Cloudy BKN041 93 75 93 82 56% 104 29.97 1014.9
25 11:53 SW 7 10.00 Mostly Cloudy BKN034 91 75.9 61% 103 29.99 1015.4
25 10:53 W 5 10.00 Mostly Cloudy BKN033 90 75 62% 100 29.99 1015.6
25 09:53 Vrbl 6 10.00 Mostly Cloudy BKN025 88 75 66% 98 30 1015.9
25 08:53 SW 7 10.00 A Few Clouds FEW021 86 77 75% 97 30 1015.8
25 07:53 Vrbl 5 10.00 Fair CLR 84 77 80% 94 29.99 1015.3
25 06:53 SW 3 10.00 Fair CLR 82 77 82 80.1 85% 90 29.97 1014.8
25 05:53 SW 3 10.00 Fair CLR 80.1 75.9 87% 85 29.96 1014.5
25 04:53 SW 5 10.00 Fair CLR 81 77 88% 88 29.95 1014.1
25 03:53 Calm 10.00 Partly Cloudy SCT090 81 75.9 85% 87 29.94 1013.8
25 02:53 SW 3 10.00 Fair CLR 81 75.9 85% 87 29.93 1013.5
25 01:53 S 5 10.00 Fair CLR 81 75.9 85% 87 29.93 1013.4
25 00:53 Calm 10.00 Fair CLR 81 75.9 93 81 85% 87 29.94 1013.7 0.17
24 23:53 Calm 10.00 Fair CLR 82 78.1 88% 91 29.95 1014.0
24 22:53 Calm 10.00 Fair CLR 82.9 78.1 85% 93 29.94 1013.8
24 21:53 S 7 10.00 Fair CLR 82.9 75.9 79% 91 29.91 1012.8 0.17
24 20:53 Calm 10.00 A Few Clouds FEW050 82.9 80.1 91% 95 29.92 1013.2 0.17
24 19:53 Vrbl 3 10.00 Overcast OVC032 88 75 66% 98 29.91 1012.8
24 18:53 SW 6 10.00 Overcast OVC041 91.9 75 95 91 58% 103 29.91 1012.6
24 17:53 S 9 10.00 A Few Clouds FEW046 93.9 73 51% 103 29.91 1012.7
24 16:53 S 9 10.00 Fair CLR 93 72 50% 101 29.91 1012.9
24 15:53 SW 9 10.00 A Few Clouds FEW048 91.9 75 58% 103 29.94 1013.7
24 14:53 SW 7 10.00 Mostly Cloudy BKN039 BKN060 91 75 59% 102 29.95 1014.2
24 13:53 Vrbl 3 10.00 Mostly Cloudy BKN036 93.9 75 54% 106 29.97 1014.6
24 12:53 Calm 10.00 Mostly Cloudy BKN038 91.9 73.9 93.9 80.1 56% 102 29.98 1015.2
24 11:53 Calm 10.00 Mostly Cloudy FEW032 BKN041 BKN055 89.1 75 63% 99 29.99 1015.6
24 10:53 Calm 10.00 Mostly Cloudy SCT043 BKN065 89.1 75.9 65% 100 30 1015.7
24 09:53 Calm 10.00 Mostly Cloudy BKN021 BKN036 BKN060 88 75.9 68% 99 29.99 1015.6
24 08:53 Calm 10.00 Mostly Cloudy BKN015 84.9 77 77% 95 29.99 1015.4
24 07:53 Calm 10.00 Fair CLR 82.9 77 82% 92 29.98 1015.0
24 06:53 NE 3 10.00 Fair CLR 80.1 75.9 82 78.1 87% 85 29.96 1014.4
24 05:53 Calm 10.00 Fair CLR 79 75.9 90% 83 29.94 1013.9
24 04:53 Calm 10.00 Fair CLR 80.1 77 90% 86 29.93 1013.5
24 03:53 Calm 10.00 Fair CLR 80.1 75.9 87% 85 29.93 1013.5
24 02:53 Calm 10.00 Fair CLR 80.1 75.9 87% 85 29.93 1013.5
24 01:53 S 3 10.00 Fair CLR 80.1 75.9 87% 85 29.95 1014.0
24 00:53 S 5 10.00 Fair CLR 81 75.9 89.1 80.1 85% 87 29.95 1014.1
23 23:53 SW 5 10.00 Fair CLR 81 75.9 85% 87 29.95 1014.1
23 22:53 S 6 10.00 Fair CLR 82 75.9 82% 89 29.95 1014.1
23 21:53 S 7 10.00 Fair CLR 82.9 75.9 79% 91 29.94 1013.7
23 20:53 S 6 10.00 Fair CLR 84.9 75 72% 93 29.91 1012.9
23 19:53 S 7 10.00 A Few Clouds FEW047 87.1 75.9 70% 98 29.9 1012.6
23 18:53 Calm 10.00 Mostly Cloudy BKN049 BKN055 88 75.9 93.9 88 68% 99 29.91 1012.6
23 17:53 Calm 10.00 Mostly Cloudy BKN060 91 75 59% 102 29.91 1012.8
23 16:53 SE 3 10.00 Mostly Cloudy FEW046 BKN055 BKN085 91 73.9 57% 101 29.92 1013.1
23 15:53 Calm 10.00 Overcast BKN050 OVC060 91 75 59% 102 29.93 1013.5
23 14:53 Calm 10.00 Mostly Cloudy BKN046 93 73 52% 102 29.94 1013.8
23 13:53 Calm 10.00 Mostly Cloudy BKN046 93 72 50% 101 29.96 1014.4
23 12:53 E 3 10.00 Fair CLR 91.9 72 93 77 52% 100 29.98 1015.1
23 11:53 NE 5 10.00 Fair CLR 91 73 56% 100 30 1015.9
23 10:53 Calm 10.00 Partly Cloudy SCT025 88 73.9 63% 97 30.01 1016.0
23 09:53 Calm 10.00 Mostly Cloudy BKN013 86 73 65% 93 30 1015.8
23 08:53 Calm 10.00 Partly Cloudy SCT035 82.9 75.9 79% 91 30.01 1016.0
23 07:53 NE 3 10.00 Fair CLR 81 75 82% 87 30 1015.9
23 06:53 NE 3 10.00 Fair CLR 77 73.9 81 75.9 90% 78 29.99 1015.6
23 05:53 Calm 7.00 Fair CLR 77 73.9 90% 78 29.99 1015.3
23 04:53 Calm 8.00 Fair CLR 77 73.9 90% 78 29.98 1015.1
23 03:53 Calm 10.00 Fair CLR 78.1 75 90% 81 29.97 1014.8
23 02:53 Calm 10.00 Fair CLR 79 75.9 90% 83 29.97 1015.0
23 01:53 Calm 10.00 Fair CLR 80.1 73.9 82% 85 29.99 1015.4
23 00:53 Calm 10.00 Fair CLR 81 75 90 81 82% 87 30 1015.9
22 23:53 Calm 10.00 Fair CLR 81 73.9 79% 86 30.02 1016.5
22 22:53 S 5 10.00 Fair CLR 82.9 73.9 74% 89 30.02 1016.5
22 21:53 S 6 10.00 Fair CLR 84 73.9 72% 91 30 1015.9
22 20:53 S 7 10.00 Fair CLR 84.9 73 68% 92 29.99 1015.5
22 19:53 S 8 10.00 Fair CLR 87.1 73 63% 95 29.98 1015.2
22 18:53 Calm 10.00 Partly Cloudy SCT050 90 71.1 93 89.1 54% 96 29.97 1014.8
22 17:53 Calm 10.00 A Few Clouds FEW050 91 70 50% 97 29.97 1014.8
22 16:53 E 3 10.00 A Few Clouds FEW050 91.9 69.1 47% 97 29.98 1015.1
22 15:53 Vrbl 3 10.00 Partly Cloudy SCT050 93 70 47% 99 29.99 1015.5
22 14:53 SE 5 10.00 Partly Cloudy SCT049 91.9 70 49% 98 30.01 1016.2
22 13:53 N 8 10.00 Mostly Cloudy BKN041 91.9 71.1 51% 99 30.03 1016.7
Date Time (cdt) Wind (mph) Vis. (mi.) Weather Sky Cond. Air Dwpt Max. Min. Relative Humidity Wind Chill (°F) Heat Index (°F) altimeter (in) sea level (mb) 1 hr 3 hr 6 hr
6 hour
Temperature (ºF) Pressure Precipitation (in)